Weather History for KBVS - November, 2013

Change the Weather History Date:

Thursday, November 7, 2013

  Actual Average (KBLI) Record (KBLI)
Temperature  
Mean Temperature 52 °F 45 °F  
Max Temperature 55 °F 52 °F 79 °F (2001)
Min Temperature 48 °F 38 °F 22 °F (2003)
Degree Days  
Heating Degree Days 14 20  
Month to date heating degree days 135  
Cooling Degree Days 0 0  
Month to date cooling degree days 0  
Year to date cooling degree days 42  
Growing Degree Days 2 (Base 50)    
Moisture  
Dew Point 50 °F    
Average Humidity 97    
Maximum Humidity 100    
Minimum Humidity 88    
Precipitation  
Precipitation 0.28 in 0.20 in 1.82 in (1995)
Month to date precipitation 1.33  
Year to date precipitation 27.14  
Sea Level Pressure  
Sea Level Pressure 29.80 in    
Wind  
Wind Speed 9 mph (SSE)    
Max Wind Speed 23 mph    
Max Gust Speed 34 mph    
Visibility 9 miles    
Events      
T = Trace of Precipitation, MM = Missing Value Source: NWS Daily Summary

Daily Weather History Graph

Daily Weather History Graph

Search for Another Location

Airport or City:

Trip Planner

Search our weather history database for the weather conditions in past years. The results will help you decide how hot, cold, wet, or windy it might be!

Date:

Astronomy

Nov. 07, 2013 Rise Set
Actual Time 7:05 AM PST 4:40 PM PST
Civil Twilight 6:32 AM PST 5:13 PM PST
Nautical Twilight 5:54 AM PST 5:51 PM PST
Astronomical Twilight 5:18 AM PST 6:27 PM PST
Moon 11:22 AM PST (11/7) 8:55 PM PST (11/7)
Length of Visible Light 10h 41m
Length of Day
9h 34m
Waxing Crescent, 24% of the Moon is Illuminated
Nov 7
Waxing Crescent
Nov 9
First Quarter
Nov 17
Full
Nov 25
Last Quarter
Dec 2
New

Hourly Weather History & Observations

Time (PST) Temp. Dew Point Humidity Pressure Visibility Wind Dir Wind Speed Gust Speed Precip Events Conditions
12:15 AM 48.2 °F 48.2 °F 100% 30.00 in 8.0 mi ESE 5.8 mph - 0.02 in   Overcast
12:35 AM 48.2 °F 48.2 °F 100% 29.99 in 10.0 mi ESE 6.9 mph - 0.04 in   Overcast
12:55 AM 48.2 °F 48.2 °F 100% 29.98 in 10.0 mi ESE 4.6 mph - 0.05 in   Overcast
1:15 AM 48.2 °F 48.2 °F 100% 29.97 in 9.0 mi SE 4.6 mph - 0.01 in   Overcast
1:35 AM 48.2 °F 48.2 °F 100% 29.96 in 10.0 mi Calm Calm - 0.02 in   Overcast
1:55 AM 48.2 °F 48.2 °F 100% 29.94 in 9.0 mi East 5.8 mph - 0.02 in   Overcast
2:15 AM 48.2 °F 48.2 °F 100% 29.93 in 10.0 mi Calm Calm - 0.00 in   Overcast
2:35 AM 50.0 °F 50.0 °F 100% 29.92 in 9.0 mi ESE 3.5 mph - 0.00 in   Overcast
2:55 AM 51.8 °F 51.8 °F 100% 29.90 in 10.0 mi ESE 4.6 mph - 0.00 in   Overcast
3:15 AM 51.8 °F 51.8 °F 100% 29.89 in 10.0 mi South 3.5 mph - 0.00 in   Overcast
3:35 AM 51.8 °F 51.8 °F 100% 29.87 in 10.0 mi ESE 10.4 mph - 0.00 in   Overcast
3:55 AM 53.6 °F 53.6 °F 100% 29.85 in 9.0 mi East 10.4 mph - 0.00 in   Overcast
4:15 AM 51.8 °F 51.8 °F 100% 29.84 in 10.0 mi ENE 5.8 mph - 0.00 in   Overcast
4:35 AM 50.0 °F 50.0 °F 100% 29.83 in 10.0 mi ENE 8.1 mph - 0.00 in   Overcast
4:55 AM 50.0 °F 50.0 °F 100% 29.81 in 10.0 mi ENE 11.5 mph - 0.00 in   Overcast
5:15 AM 50.0 °F 50.0 °F 100% 29.81 in 9.0 mi East 6.9 mph - 0.00 in   Overcast
5:35 AM 53.6 °F 53.6 °F 100% 29.79 in 8.0 mi SE 10.4 mph 19.6 mph 0.01 in   Overcast
5:55 AM 53.6 °F 53.6 °F 100% 29.78 in 10.0 mi SE 11.5 mph 19.6 mph 0.01 in   Overcast
6:15 AM 55.4 °F 53.6 °F 94% 29.76 in 9.0 mi SE 12.7 mph 20.7 mph 0.00 in   Overcast
6:35 AM 55.4 °F 53.6 °F 94% 29.75 in 10.0 mi SE 19.6 mph 27.6 mph 0.00 in   Overcast
6:55 AM 55.4 °F 53.6 °F 94% 29.75 in 10.0 mi SSE 15.0 mph 23.0 mph 0.00 in   Overcast
7:15 AM 53.6 °F 53.6 °F 100% 29.73 in 3.0 mi SE 13.8 mph 26.5 mph 0.00 in   Overcast
7:35 AM 55.4 °F 53.6 °F 94% 29.71 in 10.0 mi SE 19.6 mph 32.2 mph 0.01 in   Mostly Cloudy
7:55 AM 55.4 °F 53.6 °F 94% 29.70 in 10.0 mi SE 17.3 mph 29.9 mph 0.01 in   Mostly Cloudy
8:15 AM 55.4 °F 53.6 °F 94% 29.70 in 10.0 mi SSE 17.3 mph 26.5 mph 0.00 in   Mostly Cloudy
8:35 AM 55.4 °F 53.6 °F 94% 29.70 in 9.0 mi SSE 16.1 mph 24.2 mph 0.00 in   Mostly Cloudy
8:55 AM 55.4 °F 53.6 °F 94% 29.69 in 4.0 mi SSE 13.8 mph 21.9 mph 0.00 in   Overcast
9:15 AM 55.4 °F 53.6 °F 94% 29.68 in 8.0 mi SSE 12.7 mph 21.9 mph 0.01 in   Overcast
9:35 AM 55.4 °F 53.6 °F 94% 29.69 in 9.0 mi South 12.7 mph 19.6 mph 0.01 in   Overcast
9:55 AM 53.6 °F 53.6 °F 100% 29.69 in 9.0 mi South 12.7 mph 16.1 mph 0.02 in   Overcast
10:15 AM 51.8 °F 51.8 °F 100% 29.70 in 5.0 mi South 13.8 mph 21.9 mph 0.01 in   Overcast
10:35 AM 51.8 °F 51.8 °F 100% 29.71 in 5.0 mi SSW 10.4 mph - 0.04 in   Overcast
10:55 AM 50.0 °F 50.0 °F 100% 29.72 in 3.0 mi South 9.2 mph - 0.10 in   Overcast
11:15 AM 50.0 °F 50.0 °F 100% 29.73 in 5.0 mi SSE 16.1 mph 24.2 mph 0.06 in   Overcast
11:35 AM 50.0 °F 50.0 °F 100% 29.73 in 9.0 mi SSE 15.0 mph 28.8 mph 0.07 in   Overcast
11:55 AM 50.0 °F 48.2 °F 94% 29.74 in 8.0 mi South 17.3 mph 25.3 mph 0.07 in   Overcast
12:15 PM 50.0 °F 48.2 °F 94% 29.74 in 9.0 mi SSE 17.3 mph 26.5 mph 0.00 in   Overcast
12:35 PM 50.0 °F 48.2 °F 94% 29.73 in 10.0 mi SSE 17.3 mph 25.3 mph 0.00 in   Overcast
12:55 PM 50.0 °F 48.2 °F 94% 29.73 in 10.0 mi SE 12.7 mph 28.8 mph 0.00 in   Overcast
1:15 PM 50.0 °F 48.2 °F 94% 29.72 in 10.0 mi SE 23.0 mph 34.5 mph 0.00 in   Overcast
1:35 PM 51.8 °F 48.2 °F 88% 29.72 in 10.0 mi SE 19.6 mph 29.9 mph 0.00 in   Overcast
1:55 PM 51.8 °F 48.2 °F 88% 29.71 in 10.0 mi SSE 18.4 mph 28.8 mph 0.00 in   Overcast
2:15 PM 51.8 °F 48.2 °F 88% 29.71 in 10.0 mi SSE 15.0 mph 31.1 mph 0.00 in   Overcast
2:55 PM 51.8 °F 48.2 °F 88% 29.70 in 10.0 mi SSE 15.0 mph 21.9 mph 0.00 in   Overcast
3:15 PM 51.8 °F 48.2 °F 88% 29.70 in 10.0 mi SSE 17.3 mph 27.6 mph 0.00 in   Mostly Cloudy
3:35 PM 51.8 °F 48.2 °F 88% 29.71 in 10.0 mi SSE 12.7 mph 21.9 mph 0.00 in   Mostly Cloudy
3:55 PM 51.8 °F 48.2 °F 88% 29.70 in 10.0 mi SSE 18.4 mph 26.5 mph 0.00 in   Overcast
4:15 PM 50.0 °F 48.2 °F 94% 29.71 in 10.0 mi SSE 16.1 mph 27.6 mph 0.00 in   Overcast
4:35 PM 50.0 °F 48.2 °F 94% 29.72 in 10.0 mi SSE 11.5 mph 20.7 mph 0.00 in   Overcast
4:55 PM 50.0 °F 48.2 °F 94% 29.73 in 10.0 mi SE 15.0 mph 19.6 mph 0.00 in   Overcast
5:15 PM 50.0 °F 48.2 °F 94% 29.74 in 10.0 mi SE 10.4 mph - 0.00 in   Overcast
5:35 PM 50.0 °F 48.2 °F 94% 29.75 in 10.0 mi SSE 10.4 mph - 0.00 in   Overcast
5:55 PM 50.0 °F 48.2 °F 94% 29.76 in 10.0 mi SSE 8.1 mph - 0.00 in   Overcast
6:15 PM 50.0 °F 48.2 °F 94% 29.77 in 10.0 mi SSE 6.9 mph - 0.00 in   Overcast
6:35 PM 50.0 °F 48.2 °F 94% 29.78 in 9.0 mi SSE 5.8 mph - 0.00 in   Overcast
6:55 PM 48.2 °F 48.2 °F 100% 29.80 in 10.0 mi South 4.6 mph - 0.00 in   Overcast
7:15 PM 48.2 °F 48.2 °F 100% 29.81 in 10.0 mi SSE 4.6 mph - 0.00 in   Overcast
7:35 PM 48.2 °F 48.2 °F 100% 29.82 in 10.0 mi South 5.8 mph - 0.00 in   Overcast
7:55 PM 48.2 °F 48.2 °F 100% 29.84 in 10.0 mi SW 5.8 mph - 0.00 in   Overcast
8:15 PM 48.2 °F 48.2 °F 100% 29.85 in 10.0 mi SSW 5.8 mph - 0.00 in   Overcast
8:35 PM 48.2 °F 48.2 °F 100% 29.86 in 10.0 mi SW 8.1 mph - 0.00 in   Overcast
8:55 PM 48.2 °F 48.2 °F 100% 29.87 in 10.0 mi SSW 6.9 mph - 0.00 in   Overcast
9:15 PM 48.2 °F 48.2 °F 100% 29.89 in 10.0 mi SW 6.9 mph - 0.00 in   Overcast
9:35 PM 48.2 °F 48.2 °F 100% 29.90 in 10.0 mi SSW 8.1 mph - 0.00 in   Mostly Cloudy
9:55 PM 48.2 °F 48.2 °F 100% 29.91 in 10.0 mi SW 5.8 mph - 0.00 in   Mostly Cloudy
10:15 PM 50.0 °F 48.2 °F 94% 29.92 in 10.0 mi West 5.8 mph - 0.00 in   Overcast
10:35 PM 50.0 °F 48.2 °F 94% 29.93 in 10.0 mi West 8.1 mph - 0.00 in   Overcast
10:55 PM 50.0 °F 48.2 °F 94% 29.94 in 10.0 mi SW 3.5 mph - 0.00 in   Overcast
11:15 PM 50.0 °F 48.2 °F 94% 29.95 in 10.0 mi WSW 9.2 mph - 0.00 in   Overcast
11:35 PM 48.2 °F 48.2 °F 100% 29.96 in 8.0 mi SW 6.9 mph - 0.00 in   Overcast
11:55 PM 48.2 °F 48.2 °F 100% 29.98 in 10.0 mi SW 6.9 mph - 0.00 in   Overcast